User: anonymous
Location: Unspecified
(0.0000°N, 0.0000°E)
Time: 20:52:09
(UTC+02:00)
Language:

Atlas Centaur 2 - Orbit

View from above orbital plane
View from above orbital plane
View from above satellite
View from above satellite

Ground track
Ground track

The orbit data is extracted from the following two-line orbital elements,

1 00694U 63047A   14245.39062694  .00002549  00000-0  32661-3 0  5801
2 00694 030.3617 003.1887 0597553 203.4071 187.5791 13.99714210539719
Epoch (UTC): 02 September 2014 09:22:30
Eccentricity: 0.0597553
inclination: 30.3617°
perigee height: 460 km
apogee height: 1329 km
right ascension of ascending node: 3.1887°
argument of perigee: 203.4071°
revolutions per day: 13.99714210
mean anomaly at epoch: 187.5791°
orbit number at epoch: 53971

The dashed part of the orbit path shows where the satellite is in the earth's shadow,  

DLR